{"data":{"norad_id":58741,"epoch":"2026-05-25T00:58:35.207328Z","epoch_age_seconds":74631,"freshness":"FRESH","line1":"1 58741U 24005P   26145.04068527 -.00000424  00000+0 -59005-5 0  9991","line2":"2 58741  43.0005 148.3104 0000901 268.3516  91.7232 15.27573792132122","mean_motion":15.27573792,"eccentricity":9.01e-5,"inclination_deg":43.0005,"raan_deg":148.3104,"arg_perigee_deg":268.3516,"mean_anomaly_deg":91.7232,"bstar":-5.9005e-6,"rev_number":13212,"period_min":94.267131810023,"perigee_km":482.4494905458,"apogee_km":483.68587963005,"semimajor_km":6861.2046850879,"source":"CELESTRAK","updated_at":"2026-05-25T13:38:18.737839Z"}}